User: anonymous   Login
Location: Spruce Knob
(38.6995°N, 79.5330°W)
Time: 14:49:22
(UTC-04:00)
Language:

Gurwin Techsat 1B - Orbit

View from above orbital plane
View from above orbital plane
View from above satellite
View from above satellite

Ground track
Ground track

The orbit data is extracted from the following two-line orbital elements,

1 25397U 98043D   24112.88707676  .00000468  00000-0  22393-3 0  9999
2 25397  98.9173  78.7854 0001131  15.5924 344.5289 14.24022154339629
Epoch (UTC): 21 April 2024 21:17:23
Eccentricity: 0.0001131
inclination: 98.9173°
perigee height: 811 km
apogee height: 812 km
right ascension of ascending node: 78.7854°
argument of perigee: 15.5924°
revolutions per day: 14.24022154
mean anomaly at epoch: 344.5289°
orbit number at epoch: 33962

The dashed part of the orbit path shows where the satellite is in the earth's shadow,  

DLR